Regional Weather Roundup
Issued by NWS

Home | Current Version | Previous Version | Graphics & Text | Print | Product List | Glossary On
Versions: 1 2 3 4 5 6 7 8 9 10 11 12 13 14 15 16 17 18 19 20 21 22 23 24 25 26 27 28 29 30 31 32 33 34 35 36 37 38 39 40 41 42 43 44 45 46 47 48 49 50
000
ASUS43 KOAX 231510
RWRNE

WEATHER ROUNDUP FOR NEBRASKA
NATIONAL WEATHER SERVICE OMAHA NE
1000 AM CDT TUE SEP 23 2014

NOTES: SATELLITE DATA IS BEING USED TO AUGMENT CLOUD COVER ABOVE
       12000 FEET.
       "FAIR" INDICATES FEW OR NO CLOUDS BELOW 12,000 FEET WITH NO
       SIGNIFICANT WEATHER AND/OR OBSTRUCTIONS TO VISIBILITY.

  * THESE STATIONS DO NOT REPORT WEATHER SUCH AS RAIN...SNOW OR FOG.

NEZ001>004-019>022-054>056-231600-
NEBRASKA PANHANDLE

CITY           SKY/WX    TMP DP  RH WIND       PRES   REMARKS
SCOTTSBLUFF    SUNNY     62  51  67 NW8       30.04R
ALLIANCE       MOSUNNY   62  51  67 W13       30.00S
CHADRON        PTSUNNY   65  55  70 SW9       29.96R
KIMBALL        SUNNY     65  49  54 W16G22    30.08S
SIDNEY         SUNNY     66  51  58 W18       30.07R
$$

NEZ057>060-069>072-079>082-231600-
SOUTHWEST NEBRASKA

CITY           SKY/WX    TMP DP  RH WIND       PRES   REMARKS
NORTH PLATTE   MOSUNNY   63  57  81 S14       30.02S
IMPERIAL       MOSUNNY   65  57  75 SW14      30.03S
LEXINGTON      MOSUNNY   60  57  91 S8        30.06S
MCCOOK         CLOUDY    61  56  83 S10       30.05R
OGALLALA       SUNNY     64  60  85 SW8       30.02S
$$

NEZ005>010-023>029-035>040-094-231600-
NORTH CENTRAL NEBRASKA

CITY           SKY/WX    TMP DP  RH WIND       PRES   REMARKS
VALENTINE      CLOUDY    63  58  83 S17       29.96R
AINSWORTH      CLOUDY    59  55  87 S17       29.99S
BROKEN BOW     CLOUDY    59  56  89 S12       30.05S
O`NEILL        CLOUDY    58  57  97 S15       30.06S
ORD            CLOUDY    57  54  89 SE13      30.06S
THEDFORD       CLOUDY    64  58  81 S20       30.00S
$$

NEZ041-046>049-061>064-073>077-083>087-231600-
SOUTH CENTRAL NEBRASKA

CITY           SKY/WX    TMP DP  RH WIND       PRES   REMARKS
GRAND ISLAND   CLOUDY    58  55  90 SE10      30.11R
AURORA         CLOUDY    58  56  94 SE10      30.11S
HASTINGS       CLOUDY    58  54  86 S12       30.09S
HEBRON         CLOUDY    60  56  84 S6        30.14R
HOLDREGE       MOSUNNY   59  56  89 S10       30.07S
KEARNEY *      CLOUDY    57  55  94 SE9       30.09S
YORK           CLOUDY    57  57 100 S12G17    30.13S
$$

NEZ011>018-030>034-042>045-231600-
NORTHEAST NEBRASKA

CITY           SKY/WX    TMP DP  RH WIND       PRES   REMARKS
NORFOLK        RAIN      58  56  93 S12       30.12S FOG
ALBION         CLOUDY    56  55  94 SE12G17   30.10F
BLAIR          LGT RAIN  62  53  72 SE10      30.18F
COLUMBUS *     CLOUDY    57  54  88 S9        30.14S
FREMONT        LGT RAIN  61  55  81 SE7       30.17S
TEKAMAH        CLOUDY    62  55  77 SE10      30.17S
WAYNE          LGT RAIN  57  55  93 SE10      30.14F
$$

NEZ050>053-065>068-078-088>093-231600-
SOUTHEAST NEBRASKA

CITY           SKY/WX    TMP DP  RH WIND       PRES   REMARKS
LINCOLN        LGT RAIN  59  56  89 SE10      30.17F
OMAHA EPPLEY   LGT RAIN  62  53  72 SE13      30.19F
BEATRICE       CLOUDY    59  56  89 SE6       30.16F
FALLS CITY     CLOUDY    63  53  70 S9        30.20R
NEBRASKA CITY  LGT RAIN  61  48  63 S9        30.20R
PLATTSMOUTH    CLOUDY    60  52  73 SE8       30.20R
$$

NEZ044-045-051>053-067-231600-
OMAHA AREA

CITY           SKY/WX    TMP DP  RH WIND       PRES   REMARKS
OMAHA EPPLEY   LGT RAIN  62  53  72 SE13      30.19F
BLAIR          LGT RAIN  62  53  72 SE10      30.18F
FREMONT        LGT RAIN  61  55  81 SE7       30.17S
MILLARD        LGT RAIN  61  55  81 SE9       30.19S
OFFUTT AFB     CLOUDY    61  59  92 SE10      30.19S
PLATTSMOUTH    CLOUDY    60  52  73 SE8       30.20R
WAHOO          LGT RAIN  59  55  85 SE10      30.17S
$$


USA.gov is the U.S. government's official web portal to all federal, state and local government web resources and services.